1536573600.64,9474,18.69,74492.0,9.55,3.19,-2.43,0,*69
1536573601.87,9475,18.69,74490.8,9.55,3.07,-2.59,0,*6C
1536573603.05,9476,18.75,74492.8,9.55,3.29,-2.43,0,*68
1536573604.25,9477,18.69,74488.0,9.55,3.07,-2.43,0,*65
1536573605.42,9478,18.69,74488.3,9.55,3.25,-2.43,0,*6A
1536573606.68,9479,18.69,74490.8,9.57,3.15,-2.59,0,*61
1536573607.91,9480,18.69,74488.3,9.57,2.95,-2.71,0,*64
1536573609.16,9481,18.69,74488.0,9.57,3.03,-2.71,0,*6B
1536573610.39,9482,18.75,74490.5,9.57,2.95,-2.71,0,*66
1536573611.62,9483,18.69,74490.0,9.57,2.89,-2.95,0,*60
1536573612.79,9484,18.69,74488.8,9.59,2.95,-2.91,0,*60
1536573613.99,9485,18.75,74492.8,9.59,2.69,-3.19,0,*63
1536573615.18,9486,18.69,74490.8,9.59,2.73,-3.19,0,*6B
1536573616.4,9487,18.69,74488.3,9.61,2.55,-3.23,0,*6C
1536573617.62,9488,18.69,74490.3,9.59,2.51,-3.47,0,*6E
1536573618.81,9489,18.69,74492.0,9.59,2.85,-3.15,0,*61
1536573620.04,9490,18.69,74490.5,9.57,2.81,-3.11,0,*67
1536573621.24,9491,18.69,74490.0,9.57,2.65,-3.23,0,*6D
1536573622.41,9492,18.69,74490.5,9.59,2.99,-2.83,0,*68
1536573623.58,9493,18.75,74492.8,9.59,2.99,-2.91,0,*6A
1536573624.84,9494,18.75,74494.3,9.61,2.51,-3.51,0,*6F
1536573626.01,9495,18.69,74490.0,9.59,2.27,-3.79,0,*6E
1536573627.22,9496,18.75,74490.8,9.59,2.01,-4.13,0,*62
1536573628.42,9497,18.69,74488.8,9.59,2.09,-4.13,0,*6B
1536573629.62,9498,18.69,74488.3,9.59,2.21,-4.09,0,*65
1536573630.83,9499,18.69,74488.3,9.59,1.97,-4.37,0,*67
1536573632.07,9500,18.69,74488.3,9.61,2.17,-4.21,0,*61
1536573633.3,9501,18.69,74488.3,9.57,2.17,-4.09,0,*6F
1536573634.52,9502,18.69,74488.0,9.57,2.05,-4.17,0,*60
1536573635.74,9503,18.69,74490.5,9.57,2.25,-3.87,0,*6D
1536573636.98,9504,18.69,74488.3,9.57,2.17,-4.13,0,*61
1536573638.2,9505,18.69,74490.3,9.57,2.09,-4.13,0,*6F
1536573639.43,9506,18.69,74488.3,9.57,2.09,-4.09,0,*67
1536573640.63,9507,18.69,74490.0,9.59,2.05,-4.09,0,*64
1536573641.83,9508,18.69,74486.8,9.59,2.25,-3.83,0,*6C
1536573643.03,9509,18.69,74488.8,9.59,2.25,-3.91,0,*6E
1536573644.23,9510,18.69,74488.3,9.59,2.25,-3.95,0,*62
1536573645.43,9511,18.69,74488.8,9.63,2.05,-4.09,0,*6A
1536573646.63,9512,18.75,74494.5,9.59,2.13,-4.05,0,*6B
1536573647.83,9513,18.69,74490.3,9.61,2.31,-3.79,0,*6D
1536573649.06,9514,18.69,74492.3,9.61,2.13,-4.05,0,*66
1536573650.29,9515,18.69,74488.0,9.61,2.01,-4.05,0,*64
1536573651.49,9516,18.75,74490.0,9.59,2.25,-3.83,0,*63
1536573652.71,9517,18.69,74490.3,9.61,2.31,-3.67,0,*66
1536573653.93,9518,18.69,74486.8,9.61,2.27,-3.63,0,*6A
1536573655.16,9519,18.69,74490.8,9.61,2.05,-3.79,0,*60
1536573656.39,9520,18.75,74492.5,9.61,2.27,-3.43,0,*63
1536573657.56,9521,18.69,74488.8,9.63,2.31,-3.27,0,*65
1536573658.76,9522,18.69,74490.0,9.63,2.77,-2.79,0,*6E
1536573660.01,9523,18.69,74490.8,9.65,2.89,-2.47,0,*65
1536573661.21,9524,18.69,74488.8,9.67,2.85,-2.31,0,*6D
1536573662.44,9525,18.69,74488.0,9.69,2.73,-2.31,0,*6B
1536573663.64,9526,18.69,74490.0,9.67,2.51,-2.43,0,*63
1536573664.87,9527,18.69,74490.5,9.69,2.61,-2.07,0,*6F
1536573666.1,9528,18.69,74488.0,9.69,2.61,-1.91,0,*6C
1536573667.32,9529,18.69,74490.3,9.73,2.77,-1.63,0,*6C
1536573668.51,9530,18.69,74492.0,9.71,2.65,-1.67,0,*61
1536573669.7,9531,18.69,74488.8,9.71,2.77,-1.51,0,*66
1536573670.95,9532,18.69,74488.5,9.73,2.73,-1.47,0,*64
1536573672.17,9533,18.69,74488.8,9.77,2.89,-1.25,0,*60
1536573673.39,9534,18.69,74488.5,9.77,2.39,-1.55,0,*6B
1536573674.59,9535,18.69,74486.5,9.79,2.21,-1.79,0,*63
1536573675.85,9536,18.75,74492.0,9.77,1.93,-1.99,0,*6A
1536573677.05,9537,18.75,74490.8,9.79,2.31,-1.43,0,*69
1536573678.23,9538,18.69,74488.3,9.79,2.35,-1.33,0,*65
1536573679.45,9539,18.75,74490.5,9.79,2.21,-1.39,0,*6B
1536573680.64,9540,18.69,74488.3,9.83,1.75,-1.67,0,*69
1536573681.84,9541,18.69,74490.3,9.83,1.79,-1.43,0,*62
1536573683.05,9542,18.69,74490.0,9.83,1.63,-1.55,0,*6D
1536573684.25,9543,18.69,74490.3,9.81,1.41,-1.71,0,*68
1536573685.45,9544,18.69,74488.5,9.83,1.51,-1.55,0,*6A
1536573686.68,9545,18.75,74488.5,9.81,1.05,-2.07,0,*6C
1536573687.91,9546,18.69,74488.0,9.81,1.01,-1.95,0,*63
1536573689.14,9547,18.69,74486.3,9.83,0.91,-2.03,0,*54
1536573690.36,9548,18.69,74490.8,9.81,0.63,-2.35,0,*51
1536573691.58,9549,18.69,74490.8,9.81,0.55,-2.15,0,*57
1536573692.79,9550,18.69,74484.8,9.81,0.41,-2.43,0,*59
1536573694.01,9551,18.69,74488.5,9.83,0.59,-2.11,0,*54
1536573695.25,9552,18.69,74490.3,9.81,0.63,-1.95,0,*53
1536573696.48,9553,18.69,74486.0,9.81,0.63,-1.95,0,*52
1536573697.67,9554,18.69,74490.0,9.83,0.33,-2.15,0,*59
1536573698.92,9555,18.69,74488.8,9.81,0.55,-1.83,0,*56
1536573700.15,9556,18.69,74490.3,9.81,0.55,-1.71,0,*58
1536573701.38,9557,18.69,74488.3,9.81,0.91,-1.29,0,*5C
1536573702.6,9558,18.75,74490.3,9.83,1.17,-0.93,0,*5E
1536573703.8,9559,18.69,74490.5,9.87,1.09,-0.65,0,*5D
1536573705.02,9560,18.69,74488.5,9.87,1.33,-0.49,0,*50
1536573706.22,9561,18.69,74490.8,9.87,1.37,-0.33,0,*58
1536573707.45,9562,18.69,74488.0,9.87,1.25,-0.23,0,*59
1536573708.67,9563,18.69,74490.5,9.87,1.55,0.13,0,*71
1536573709.88,9564,18.69,74490.3,9.91,1.71,0.33,0,*75
1536573711.07,9565,18.69,74490.0,9.91,1.83,0.63,0,*7C
1536573712.26,9566,18.75,74488.5,9.91,1.75,0.67,0,*72
1536573713.5,9567,18.69,74488.0,9.93,1.85,0.95,0,*73
1536573714.73,9568,18.69,74490.5,9.95,2.09,1.37,0,*44
1536573715.95,9569,18.69,74490.8,9.95,2.43,1.67,0,*4E
1536573717.2,9570,18.75,74490.3,10.01,2.59,2.01,0,*7B
1536573718.45,9571,18.69,74490.5,10.01,2.47,2.01,0,*75
1536573719.69,9572,18.69,74488.8,10.01,2.73,2.43,0,*77
1536573720.92,9573,18.69,74490.3,10.03,2.77,2.51,0,*73
1536573722.13,9574,18.75,74490.8,10.05,2.89,2.61,0,*70
1536573723.34,9575,18.69,74490.0,10.05,2.99,2.77,0,*77
1536573724.57,9576,18.69,74488.8,10.09,3.15,3.15,0,*78
1536573725.75,9577,18.69,74486.8,10.09,3.25,3.29,0,*75
1536573726.95,9578,18.69,74490.3,10.09,3.29,3.37,0,*79
1536573728.18,9579,18.75,74492.5,10.13,3.33,3.41,0,*79
1536573729.44,9580,18.69,74488.3,10.15,3.41,3.33,0,*79
1536573730.69,9581,18.69,74488.0,10.15,3.41,3.53,0,*7E
1536573731.92,9582,18.69,74486.3,10.17,3.49,3.75,0,*73
1536573733.08,9583,18.69,74488.0,10.21,3.55,3.85,0,*75
1536573734.33,9584,18.69,74490.3,10.23,3.37,3.67,0,*78
1536573735.55,9585,18.69,74490.8,10.21,2.89,3.19,0,*76
1536573736.78,9586,18.69,74490.8,10.23,2.91,3.49,0,*7B
1536573738.0,9587,18.75,74494.8,10.25,3.19,3.71,0,*76
1536573739.19,9588,18.75,74490.8,10.27,2.99,3.63,0,*71
1536573740.45,9589,18.69,74488.3,10.27,3.07,3.71,0,*75
1536573741.67,9590,18.69,74490.3,10.29,3.33,3.97,0,*7C
1536573742.9,9591,18.69,74488.8,10.31,3.29,3.97,0,*7F
1536573744.1,9592,18.75,74490.8,10.33,3.29,4.01,0,*76
1536573745.35,9593,18.69,74488.0,10.35,3.41,4.05,0,*7B
1536573746.6,9594,18.69,74490.0,10.35,3.41,4.01,0,*78
1536573747.83,9595,18.75,74494.5,10.39,3.11,3.71,0,*70
1536573749.03,9596,18.69,74488.3,10.39,3.33,3.81,0,*7C
1536573750.26,9597,18.75,74494.3,10.37,3.25,3.79,0,*73
1536573751.43,9598,18.69,74484.8,10.39,3.55,3.85,0,*76
1536573752.65,9599,18.75,74490.5,10.41,3.81,4.01,0,*7A
1536573753.87,9600,18.69,74486.3,10.41,4.01,4.11,0,*77
1536573755.07,9601,18.69,74490.8,10.45,4.15,4.15,0,*73
1536573756.27,9602,18.69,74490.5,10.45,4.45,4.37,0,*75
1536573757.5,9603,18.75,74492.0,10.45,4.67,4.57,0,*72
1536573758.73,9604,18.69,74492.3,10.49,4.71,4.49,0,*71
1536573759.99,9605,18.69,74488.5,10.49,5.01,4.63,0,*7E
1536573761.22,9606,18.75,74494.0,10.49,4.71,4.41,0,*7B
1536573762.45,9607,18.75,74490.8,10.49,4.97,4.53,0,*71
1536573763.65,9608,18.75,74490.5,10.53,5.23,4.89,0,*7C
1536573764.86,9609,18.69,74490.8,10.51,5.19,4.71,0,*71
1536573766.07,9610,18.69,74490.8,10.55,5.19,4.79,0,*75
1536573767.25,9611,18.69,74488.0,10.55,5.19,4.85,0,*77
1536573768.45,9612,18.69,74488.5,10.55,5.15,4.71,0,*73
1536573769.66,9613,18.75,74490.5,10.55,4.97,4.57,0,*7D
1536573770.85,9614,18.69,74490.5,10.55,4.93,4.49,0,*71
1536573772.06,9615,18.69,74486.8,10.57,5.19,4.85,0,*71
1536573773.28,9616,18.75,74488.8,10.57,5.15,4.79,0,*7D
1536573774.5,9617,18.69,74490.5,10.57,5.27,4.85,0,*7E
1536573775.7,9618,18.75,74490.5,10.59,5.33,5.01,0,*77
1536573776.92,9619,18.75,74490.3,10.57,5.29,4.97,0,*7D
1536573778.1,9620,18.69,74488.5,10.59,5.23,4.81,0,*74
1536573779.32,9621,18.75,74490.8,10.61,5.15,4.79,0,*7C
1536573780.57,9622,18.75,74492.8,10.61,5.05,4.75,0,*72
1536573781.74,9623,18.69,74488.8,10.63,5.37,5.15,0,*77
1536573782.96,9624,18.69,74488.0,10.61,5.37,5.05,0,*73
1536573784.14,9625,18.69,74488.0,10.63,5.33,5.11,0,*71
1536573785.34,9626,18.69,74488.3,10.61,5.45,5.11,0,*71
1536573786.54,9627,18.69,74490.5,10.63,5.23,4.75,0,*71
1536573787.75,9628,18.69,74488.5,10.63,5.33,4.93,0,*77
1536573788.95,9629,18.75,74490.0,10.63,5.23,4.93,0,*77
1536573790.15,9630,18.75,74490.8,10.63,5.15,4.67,0,*71
1536573791.36,9631,18.75,74490.8,10.67,5.19,4.71,0,*7F
1536573792.58,9632,18.75,74490.0,10.63,4.79,4.31,0,*7B
1536573793.78,9633,18.69,74490.8,10.63,4.63,4.07,0,*74
1536573794.98,9634,18.69,74488.3,10.63,4.67,4.11,0,*70
1536573796.18,9635,18.69,74488.5,10.59,4.63,4.15,0,*78
1536573797.4,9636,18.69,74484.8,10.61,4.85,4.31,0,*7E
1536573798.62,9637,18.69,74488.3,10.61,5.01,4.45,0,*71
1536573799.84,9638,18.69,74488.8,10.61,5.15,4.63,0,*7F
1536573801.05,9639,18.69,74486.3,10.63,4.93,4.45,0,*77
1536573802.25,9640,18.69,74490.0,10.61,4.89,4.33,0,*71
1536573803.44,9641,18.75,74490.3,10.61,4.85,4.33,0,*7C
1536573804.64,9642,18.75,74490.0,10.59,4.81,4.31,0,*72
1536573805.82,9643,18.75,74490.8,10.59,4.85,4.37,0,*71
1536573807.0,9644,18.75,74490.3,10.59,4.41,3.89,0,*7C
1536573808.23,9645,18.69,74488.8,10.59,4.31,3.79,0,*75
1536573809.45,9646,18.69,74484.5,10.59,4.63,4.05,0,*7D
1536573810.68,9647,18.69,74490.3,10.57,4.71,4.27,0,*71
1536573811.85,9648,18.69,74490.0,10.55,4.81,4.27,0,*73
1536573813.02,9649,18.69,74488.0,10.55,4.49,3.89,0,*75
1536573814.25,9650,18.69,74488.8,10.55,4.59,4.05,0,*7F
1536573815.45,9651,18.69,74490.3,10.55,4.33,3.79,0,*7E
1536573816.65,9652,18.69,74490.3,10.53,4.57,3.93,0,*7D
1536573817.85,9653,18.69,74488.8,10.53,4.45,3.81,0,*7C
1536573819.09,9654,18.69,74490.3,10.53,3.97,3.37,0,*7E
1536573820.27,9655,18.69,74490.3,10.51,4.19,3.59,0,*74
1536573821.49,9656,18.75,74488.5,10.53,3.71,2.99,0,*71
1536573822.7,9657,18.75,74490.3,10.51,4.07,3.49,0,*78
1536573823.92,9658,18.69,74488.0,10.51,3.97,3.37,0,*70
1536573825.15,9659,18.69,74492.3,10.49,3.67,2.95,0,*7E
1536573826.35,9660,18.69,74488.3,10.47,3.89,3.23,0,*76
1536573827.61,9661,18.69,74490.0,10.45,3.75,3.07,0,*70
1536573828.85,9662,18.69,74488.5,10.41,3.97,3.37,0,*78
1536573830.08,9663,18.69,74488.5,10.41,4.19,3.49,0,*71
1536573831.28,9664,18.69,74490.5,10.41,3.85,3.25,0,*7E
1536573832.5,9665,18.75,74492.3,10.41,3.81,3.11,0,*7C
1536573833.71,9666,18.69,74488.0,10.39,3.67,2.95,0,*75
1536573834.94,9667,18.69,74488.3,10.37,3.55,2.89,0,*76
1536573836.16,9668,18.75,74494.0,10.37,3.71,2.95,0,*72
1536573837.42,9669,18.75,74494.0,10.37,4.05,3.37,0,*7E
1536573838.65,9670,18.69,74488.5,10.35,3.75,2.95,0,*7D
1536573839.86,9671,18.69,74488.8,10.35,3.55,2.85,0,*7F
1536573841.09,9672,18.69,74484.3,10.33,3.75,3.11,0,*74
1536573842.29,9673,18.75,74490.8,10.33,3.93,3.33,0,*7D
1536573843.52,9674,18.69,74488.5,10.33,3.75,3.07,0,*75
1536573844.74,9675,18.75,74490.0,10.29,3.49,2.81,0,*7F
1536573845.92,9676,18.75,74490.3,10.29,3.25,2.65,0,*7C
1536573847.1,9677,18.69,74488.0,10.29,3.25,2.65,0,*7D
1536573848.31,9678,18.69,74488.3,10.25,3.89,3.33,0,*7A
1536573849.51,9679,18.69,74486.0,10.27,3.63,2.95,0,*70
1536573850.67,9680,18.69,74490.3,10.25,3.63,2.91,0,*70
1536573851.87,9681,18.75,74490.0,10.25,3.81,3.23,0,*75
1536573853.12,9682,18.69,74490.3,10.23,3.79,3.15,0,*72
1536573854.38,9683,18.69,74486.8,10.23,4.01,3.41,0,*7A
1536573855.6,9684,18.69,74488.8,10.23,3.89,3.37,0,*7B
1536573856.83,9685,18.69,74488.8,10.23,4.11,3.53,0,*7E
1536573858.06,9686,18.69,74488.5,10.21,3.75,3.15,0,*78
1536573859.26,9687,18.75,74488.5,10.21,3.53,2.95,0,*74
1536573860.48,9688,18.69,74484.8,10.21,3.53,2.89,0,*76
1536573861.68,9689,18.75,74490.0,10.21,4.19,3.53,0,*78
1536573862.9,9690,18.69,74490.0,10.21,4.01,3.49,0,*72
1536573864.13,9691,18.69,74488.0,10.17,3.37,2.77,0,*78
1536573865.36,9692,18.75,74488.5,10.17,3.15,2.55,0,*7B
1536573866.56,9693,18.75,74490.5,10.13,3.19,2.61,0,*75
1536573867.79,9694,18.69,74488.5,10.13,3.45,2.89,0,*7D
1536573869.02,9695,18.69,74490.3,10.11,3.25,2.59,0,*75
1536573870.25,9696,18.69,74490.0,10.11,3.49,2.91,0,*78
1536573871.46,9697,18.69,74488.5,10.11,3.25,2.65,0,*78
1536573872.69,9698,18.69,74490.5,10.11,3.41,2.95,0,*7A
1536573873.9,9699,18.69,74488.0,10.07,3.25,2.61,0,*75
1536573875.16,9700,18.69,74490.3,10.07,3.33,2.81,0,*7D
1536573876.42,9701,18.69,74488.3,10.07,3.71,3.15,0,*76
1536573877.65,9702,18.75,74490.3,10.07,3.81,3.33,0,*7E
1536573878.86,9703,18.69,74488.5,10.07,3.81,3.25,0,*78
1536573880.11,9704,18.69,74490.8,10.07,3.97,3.37,0,*7B
1536573881.34,9705,18.69,74490.3,10.09,3.97,3.41,0,*75
1536573882.6,9706,18.69,74490.0,10.07,3.37,2.77,0,*76
1536573883.82,9707,18.69,74488.5,10.07,3.53,2.91,0,*7D
1536573885.05,9708,18.69,74488.3,10.05,3.33,2.77,0,*7E
1536573886.27,9709,18.75,74492.3,10.05,3.23,2.61,0,*79
1536573887.49,9710,18.69,74488.8,10.03,2.73,2.13,0,*76
1536573888.69,9711,18.75,74488.5,10.03,2.89,2.35,0,*76
1536573889.94,9712,18.69,74488.8,10.01,3.15,2.47,0,*76
1536573891.19,9713,18.75,74488.0,10.01,3.67,3.07,0,*77
1536573892.39,9714,18.69,74488.0,9.99,2.91,2.43,0,*40
1536573893.64,9715,18.69,74490.3,10.01,3.07,2.47,0,*72
1536573894.86,9716,18.69,74486.5,9.99,2.69,2.05,0,*47
1536573896.08,9717,18.69,74490.3,9.99,2.77,2.21,0,*4F
1536573897.32,9718,18.69,74488.0,9.93,2.59,2.05,0,*40
1536573898.52,9719,18.69,74488.0,9.93,2.95,2.35,0,*42
1536573899.75,9720,18.75,74490.3,9.95,3.15,2.51,0,*45
1536573900.94,9721,18.69,74490.3,9.93,2.99,2.35,0,*45
1536573902.17,9722,18.75,74488.8,9.95,3.03,2.39,0,*4E
1536573903.43,9723,18.69,74488.0,9.93,3.07,2.39,0,*4D
1536573904.67,9724,18.69,74488.0,9.93,2.85,2.25,0,*4C
1536573905.9,9725,18.69,74490.0,9.91,3.07,2.43,0,*44
1536573907.12,9726,18.69,74488.8,9.91,2.81,2.25,0,*48
1536573908.32,9727,18.69,74488.8,9.91,2.61,2.01,0,*41
1536573909.55,9728,18.75,74490.3,9.89,2.55,1.89,0,*43
1536573910.77,9729,18.69,74488.0,9.87,2.43,1.71,0,*4C
1536573911.99,9730,18.75,74490.8,9.87,2.39,1.71,0,*49
1536573913.24,9731,18.69,74488.8,9.85,2.47,2.05,0,*43
1536573914.46,9732,18.69,74490.5,9.87,2.69,2.17,0,*4D
1536573915.67,9733,18.75,74490.3,9.85,2.85,2.27,0,*4F
1536573916.89,9734,18.69,74486.8,9.85,2.39,1.83,0,*42
1536573918.12,9735,18.69,74488.8,9.85,2.47,1.83,0,*4A
1536573919.36,9736,18.69,74486.3,9.85,1.93,1.51,0,*4C
1536573920.6,9737,18.69,74490.3,9.85,2.13,1.63,0,*47
1536573921.82,9738,18.69,74488.0,9.83,2.01,1.63,0,*4D
1536573923.03,9739,18.69,74488.8,9.81,1.89,1.41,0,*4D
1536573924.27,9740,18.69,74488.0,9.81,2.21,1.63,0,*42
1536573925.51,9741,18.69,74488.5,9.81,2.13,1.63,0,*42
1536573926.75,9742,18.69,74488.3,9.81,2.01,1.59,0,*4B
1536573927.99,9743,18.69,74490.0,9.81,1.97,1.59,0,*46
1536573929.21,9744,18.69,74490.3,9.79,1.97,1.51,0,*4E
1536573930.41,9745,18.69,74488.3,9.79,1.75,1.51,0,*43
1536573931.63,9746,18.69,74488.0,9.79,1.71,1.29,0,*4B
1536573932.86,9747,18.69,74488.5,9.77,1.59,1.25,0,*42
1536573934.08,9748,18.69,74488.8,9.77,1.25,1.01,0,*40
1536573935.31,9749,18.69,74488.8,9.73,1.29,1.05,0,*4D
1536573936.54,9750,18.69,74490.5,9.73,1.17,1.05,0,*48
1536573937.76,9751,18.69,74488.3,9.71,1.09,0.87,0,*7F
1536573938.97,9752,18.75,74488.5,9.71,1.43,1.29,0,*47
1536573940.19,9753,18.75,74490.3,9.71,1.51,1.33,0,*4E
1536573941.4,9754,18.75,74492.3,9.71,1.67,1.43,0,*4B
1536573942.65,9755,18.69,74488.3,9.73,1.63,1.33,0,*4B
1536573943.9,9756,18.75,74488.3,9.69,1.37,1.17,0,*44
1536573945.12,9757,18.69,74490.8,9.69,1.05,0.83,0,*78
1536573946.34,9758,18.69,74490.3,9.69,1.25,1.05,0,*4A
1536573947.57,9759,18.69,74488.3,9.69,1.13,1.05,0,*4E
1536573948.76,9760,18.69,74488.8,9.67,1.25,1.05,0,*4F
1536573949.96,9761,18.69,74486.5,9.67,1.37,1.41,0,*4D
1536573951.19,9762,18.75,74492.3,9.67,1.13,1.17,0,*4B
1536573952.44,9763,18.69,74490.3,9.69,1.13,1.17,0,*44
1536573953.66,9764,18.69,74490.8,9.67,1.25,1.29,0,*45
1536573954.89,9765,18.69,74488.3,9.69,0.95,0.95,0,*46
1536573956.12,9766,18.69,74486.8,9.65,0.59,0.71,0,*43
1536573957.33,9767,18.69,74486.3,9.67,0.51,0.63,0,*4B
1536573958.56,9768,18.75,74492.0,9.65,0.63,0.71,0,*44
1536573959.79,9769,18.75,74492.5,9.65,0.63,0.79,0,*4D
1536573961.0,9770,18.69,74488.8,9.63,0.59,0.75,0,*46
1536573962.2,9771,18.75,74490.8,9.63,0.75,0.67,0,*4A
1536573963.39,9772,18.75,74490.8,9.65,0.97,0.97,0,*4C
1536573964.58,9773,18.69,74486.8,9.63,1.09,0.97,0,*7D
1536573965.83,9774,18.69,74488.0,9.65,1.37,1.25,0,*49
1536573967.03,9775,18.69,74488.5,9.63,0.95,0.67,0,*40
1536573968.29,9776,18.69,74490.3,9.65,1.21,0.87,0,*75
1536573969.51,9777,18.75,74490.3,9.63,1.33,0.87,0,*71
1536573970.76,9778,18.69,74488.3,9.65,1.43,0.91,0,*78
1536573971.97,9779,18.69,74488.3,9.63,1.51,0.95,0,*78
1536573973.18,9780,18.69,74488.5,9.63,1.43,0.83,0,*7A
1536573974.37,9781,18.69,74490.3,9.63,1.71,1.05,0,*45
1536573975.59,9782,18.69,74488.5,9.63,1.93,1.21,0,*4C
1536573976.81,9783,18.69,74486.5,9.63,2.05,1.29,0,*49
1536573978.05,9784,18.69,74490.0,9.65,1.93,1.13,0,*4D
1536573979.27,9785,18.69,74486.3,9.63,1.93,1.09,0,*41
1536573980.46,9786,18.69,74486.8,9.63,1.79,0.87,0,*71
1536573981.69,9787,18.69,74488.3,9.65,1.85,1.01,0,*4A
1536573982.88,9788,18.69,74490.3,9.63,1.83,0.87,0,*7A
1536573984.09,9789,18.69,74486.8,9.63,2.13,1.17,0,*49
1536573985.32,9790,18.69,74490.3,9.63,2.17,1.21,0,*40
1536573986.54,9791,18.75,74492.3,9.63,2.25,1.33,0,*43
1536573987.76,9792,18.69,74488.0,9.63,2.25,1.21,0,*43
1536573989.0,9793,18.69,74490.8,9.65,2.21,1.25,0,*44
1536573990.19,9794,18.69,74486.5,9.63,2.05,1.05,0,*41
1536573991.4,9795,18.69,74490.0,9.65,2.01,0.97,0,*78
1536573992.62,9796,18.69,74490.8,9.63,2.13,1.09,0,*48
1536573993.83,9797,18.69,74488.5,9.65,2.09,0.97,0,*72
1536573995.06,9798,18.69,74490.8,9.63,2.17,1.09,0,*42
1536573996.3,9799,18.69,74488.0,9.65,2.21,1.13,0,*4B
1536573997.53,9800,18.69,74486.8,9.65,2.27,1.21,0,*43
1536573998.72,9801,18.75,74488.5,9.65,2.27,1.01,0,*40
1536573999.95,9802,18.69,74488.0,9.65,2.35,1.09,0,*48
1536574001.14,9803,18.69,74490.8,9.65,2.35,1.05,0,*45
1536574002.36,9804,18.69,74484.3,9.65,2.31,0.91,0,*7A
1536574003.58,9805,18.69,74490.8,9.65,2.47,0.97,0,*7C
1536574004.83,9806,18.69,74488.5,9.65,2.47,0.91,0,*79
1536574006.08,9807,18.69,74488.5,9.65,2.17,0.51,0,*71
1536574007.3,9808,18.69,74486.5,9.65,2.27,0.71,0,*7F
1536574008.49,9809,18.69,74486.5,9.67,2.31,0.75,0,*7F
1536574009.68,9810,18.69,74488.3,9.63,2.27,0.67,0,*77
1536574010.93,9811,18.69,74484.3,9.65,2.55,0.91,0,*7C
1536574012.14,9812,18.69,74488.5,9.63,2.51,0.87,0,*7A
1536574013.39,9813,18.69,74486.3,9.65,2.69,1.09,0,*41
1536574014.58,9814,18.75,74490.8,9.67,2.61,1.13,0,*47
1536574015.8,9815,18.69,74486.3,9.67,2.69,1.17,0,*4A
1536574017.02,9816,18.69,74484.8,9.65,2.47,0.97,0,*7E
1536574018.27,9817,18.69,74484.8,9.65,2.43,1.13,0,*46
1536574019.51,9818,18.69,74486.8,9.65,2.43,1.13,0,*49
1536574020.73,9819,18.75,74488.5,9.67,2.81,1.59,0,*4A
1536574021.97,9820,18.69,74486.3,9.65,2.55,1.43,0,*40
1536574023.19,9821,18.69,74484.8,9.63,2.17,1.17,0,*40
1536574024.4,9822,18.69,74482.3,9.63,2.55,1.67,0,*42
1536574025.63,9823,18.69,74484.5,9.65,2.65,1.85,0,*4A
1536574026.84,9824,18.69,74482.0,9.63,2.39,1.71,0,*49
1536574028.02,9825,18.69,74486.3,9.63,2.31,1.79,0,*48
1536574029.23,9826,18.69,74482.0,9.63,2.55,2.05,0,*41
1536574030.48,9827,18.75,74488.0,9.61,2.85,2.39,0,*40
1536574031.73,9828,18.69,74486.3,9.61,3.03,2.77,0,*4A
1536574032.95,9829,18.69,74484.3,9.61,3.23,2.95,0,*45
1536574034.15,9830,18.69,74486.8,9.63,3.23,2.99,0,*43
1536574035.37,9831,18.75,74488.3,9.63,3.23,3.03,0,*40
1536574036.57,9832,18.69,74488.3,9.63,3.15,2.99,0,*44
1536574037.77,9833,18.75,74490.5,9.63,3.11,2.95,0,*4D
1536574038.99,9834,18.69,74488.5,9.63,3.23,3.15,0,*42
1536574040.21,9835,18.69,74486.3,9.63,3.23,3.11,0,*47
1536574041.44,9836,18.69,74488.3,9.65,2.99,2.81,0,*4A
1536574042.65,9837,18.69,74486.3,9.63,2.89,2.77,0,*45
1536574043.87,9838,18.69,74488.5,9.61,2.95,2.85,0,*48
1536574045.12,9839,18.75,74488.3,9.61,3.11,3.11,0,*48
1536574046.29,9840,18.69,74484.5,9.59,2.95,2.95,0,*4D
1536574047.54,9841,18.69,74488.8,9.61,3.11,3.11,0,*47
1536574048.76,9842,18.75,74488.8,9.59,3.23,3.19,0,*46
1536574049.99,9843,18.69,74486.3,9.59,3.45,3.41,0,*4A
1536574051.21,9844,18.69,74484.0,9.61,3.55,3.45,0,*43
1536574052.43,9845,18.75,74490.0,9.61,3.55,3.45,0,*42
1536574053.65,9846,18.69,74490.0,9.61,3.55,3.37,0,*44
1536574054.87,9847,18.69,74488.5,9.61,3.55,3.33,0,*41
1536574056.09,9848,18.69,74484.0,9.61,3.59,3.33,0,*42
1536574057.34,9849,18.69,74486.8,9.61,3.37,3.15,0,*4F
1536574058.6,9850,18.69,74486.3,9.61,3.11,2.77,0,*46
1536574059.79,9851,18.69,74486.0,9.59,2.99,2.73,0,*49
1536574061.01,9852,18.75,74488.0,9.57,2.91,2.69,0,*47
1536574062.21,9853,18.69,74486.3,9.57,3.29,2.91,0,*43
1536574063.46,9854,18.69,74488.0,9.57,3.15,2.89,0,*42
1536574064.71,9855,18.69,74486.0,9.57,3.19,2.89,0,*4F
1536574065.88,9856,18.69,74486.0,9.55,2.91,2.65,0,*4D
1536574067.07,9857,18.75,74490.0,9.55,2.95,2.69,0,*44
1536574068.32,9858,18.69,74488.0,9.49,3.07,2.85,0,*4E
1536574069.55,9859,18.69,74482.5,9.53,3.15,2.91,0,*42
1536574070.8,9860,18.69,74486.3,9.53,3.15,2.85,0,*4D
1536574072.04,9861,18.69,74486.8,9.53,3.37,3.11,0,*40
1536574073.29,9862,18.69,74484.0,9.53,3.45,3.03,0,*45
1536574074.51,9863,18.69,74484.5,9.49,3.33,2.99,0,*4C
1536574075.72,9864,18.75,74486.8,9.53,3.37,2.99,0,*44
1536574076.97,9865,18.69,74484.5,9.49,3.41,3.19,0,*46
1536574078.22,9866,18.69,74484.8,9.49,3.67,3.41,0,*4C
1536574079.48,9867,18.69,74486.3,9.49,3.67,3.41,0,*4D
1536574080.71,9868,18.69,74484.5,9.49,3.63,3.41,0,*46
1536574081.95,9869,18.69,74486.0,9.49,3.79,3.53,0,*4F
1536574083.19,9870,18.69,74486.3,9.49,3.53,3.33,0,*49
1536574084.43,9871,18.69,74484.0,9.49,3.33,3.23,0,*4F
1536574085.65,9872,18.69,74486.5,9.55,3.53,3.41,0,*43
1536574086.9,9873,18.69,74484.0,9.53,3.49,3.33,0,*4A
1536574088.14,9874,18.69,74484.5,9.49,3.53,3.33,0,*4D
1536574089.36,9875,18.69,74486.0,9.49,3.55,3.33,0,*4A
1536574090.58,9876,18.69,74486.0,9.49,3.63,3.45,0,*4D
1536574091.77,9877,18.69,74488.5,9.53,3.55,3.25,0,*44
1536574092.99,9878,18.69,74486.5,9.47,3.07,2.85,0,*42
1536574094.19,9879,18.69,74484.0,9.47,3.23,2.95,0,*44
1536574095.44,9880,18.69,74486.3,9.45,3.37,3.15,0,*4C
1536574096.66,9881,18.75,74488.3,9.47,3.41,3.23,0,*4B
1536574097.88,9882,18.69,74486.0,9.47,3.45,3.41,0,*48
1536574099.08,9883,18.69,74486.0,9.45,3.25,3.25,0,*4F
1536574100.31,9884,18.75,74486.8,9.45,3.25,3.15,0,*4B
1536574101.48,9885,18.75,74488.8,9.43,2.95,2.91,0,*4B
1536574102.7,9886,18.69,74486.0,9.43,3.53,3.53,0,*4C
1536574103.92,9887,18.69,74484.3,9.43,3.79,3.79,0,*4D
1536574105.12,9888,18.69,74484.5,9.43,3.63,3.75,0,*45
1536574106.32,9889,18.69,74486.8,9.43,3.53,3.59,0,*49
1536574107.52,9890,18.69,74486.8,9.43,2.95,3.03,0,*45
1536574108.72,9891,18.69,74486.3,9.43,2.91,3.07,0,*44
1536574109.94,9892,18.69,74488.3,9.41,2.99,3.23,0,*4B
1536574111.18,9893,18.69,74486.8,9.41,2.89,3.11,0,*4A
1536574112.44,9894,18.69,74486.0,9.41,2.81,3.11,0,*45
1536574113.66,9895,18.69,74484.8,9.41,2.55,2.91,0,*44
1536574114.88,9896,18.69,74486.8,9.41,2.65,3.11,0,*4D
1536574116.12,9897,18.69,74486.8,9.39,2.59,3.23,0,*4D
1536574117.34,9898,18.69,74484.3,9.39,2.95,3.45,0,*42
1536574118.55,9899,18.69,74486.8,9.39,2.61,3.11,0,*49
1536574119.76,9900,18.69,74486.3,9.37,2.85,3.53,0,*4A
1536574120.98,9901,18.69,74484.3,9.39,3.07,3.59,0,*44
1536574122.19,9902,18.69,74484.5,9.39,2.95,3.53,0,*47
1536574123.38,9903,18.69,74490.0,9.37,2.95,3.53,0,*48
1536574124.61,9904,18.69,74484.3,9.39,2.89,3.53,0,*4C
1536574125.83,9905,18.75,74488.5,9.39,2.89,3.59,0,*47
1536574127.07,9906,18.69,74486.8,9.39,2.77,3.41,0,*4C
1536574128.26,9907,18.75,74490.8,9.37,2.73,3.29,0,*49
1536574129.47,9908,18.69,74488.5,9.39,2.73,3.29,0,*48
1536574130.68,9909,18.69,74488.0,9.39,2.61,3.23,0,*40
1536574131.9,9910,18.69,74488.3,9.37,2.51,3.07,0,*43
1536574133.12,9911,18.75,74490.0,9.37,2.51,3.07,0,*42
1536574134.31,9912,18.69,74484.8,9.37,2.61,3.07,0,*42
1536574135.51,9913,18.69,74486.8,9.37,2.95,3.33,0,*4F